, TX

(GMT )
Midland

Weather History for KMAF - July, 2013

Change the Weather History Date:

Friday, July 26, 2013

  Actual Average Record
Temperature  
Mean Temperature 87 °F 82 °F  
Max Temperature 98 °F 95 °F 105 °F (1995)
Min Temperature 76 °F 70 °F 61 °F (2004)
Cooling Degree Days 22 17  
Month to date cooling degree days 416 442  
Year to date cooling degree days 1468 1292  
Since 1 June cooling degree days 980 903  
Growing Degree Days 38 (Base 50)    
Moisture  
Dew Point 60 °F    
Average Humidity 44    
Maximum Humidity 58    
Minimum Humidity 30    
Precipitation  
Precipitation 0.00 in 0.06 in 2.88 in (1991)
Month to date precipitation 0.98 1.54  
Year to date precipitation 3.39 7.60  
Sea Level Pressure  
Sea Level Pressure 29.91 in    
Wind  
Wind Speed 11 mph (ENE)    
Max Wind Speed 21 mph    
Max Gust Speed 41 mph    
Visibility 10 miles    
Events      
T = Trace of Precipitation, MM = Missing Value Source: NWS Daily Summary

Daily Weather History Graph

Daily Weather History Graph

Search for Another Location

Airport or City:

Trip Planner

Search our weather history database for the weather conditions in past years. The results will help you decide how hot, cold, wet, or windy it might be!

Date:

Astronomy

Jul. 26, 2013 Rise Set
Actual Time 7:00 AM CDT 8:49 PM CDT
Civil Twilight 6:33 AM CDT 9:16 PM CDT
Nautical Twilight 6:00 AM CDT 9:49 PM CDT
Astronomical Twilight 5:26 AM CDT 10:23 PM CDT
Moon 11:27 PM CDT (7/26) 11:18 AM CDT (7/26)
Length of Visible Light 14h 43m
Length of Day
13h 49m
Waning Gibbous, 80% of the Moon is Illuminated
Jul 26
Waning Gibbous
Jul 29
Last Quarter
Aug 6
New
Aug 14
First Quarter
Aug 20
Full

Hourly Weather History & Observations

Time (CDT) Temp. Heat Index Dew Point Humidity Pressure Visibility Wind Dir Wind Speed Gust Speed Precip Events Conditions
12:53 AM 84.9 °F 85.0 °F 61.0 °F 44% 29.90 in 10.0 mi South 15.0 mph 21.9 mph N/A   Clear
1:53 AM 82.9 °F 82.1 °F 55.9 °F 39% 29.90 in 10.0 mi South 12.7 mph - N/A   Clear
2:53 AM 81.0 °F 80.8 °F 55.9 °F 42% 29.90 in 10.0 mi SSW 9.2 mph - N/A   Clear
3:53 AM 79.0 °F - 57.9 °F 48% 29.89 in 10.0 mi SSW 11.5 mph - N/A   Clear
4:53 AM 79.0 °F - 60.1 °F 52% 29.89 in 10.0 mi SSW 8.1 mph - N/A   Clear
5:53 AM 79.0 °F - 61.0 °F 54% 29.90 in 10.0 mi SSW 9.2 mph - N/A   Clear
6:53 AM 77.0 °F - 61.0 °F 58% 29.91 in 10.0 mi SSE 3.5 mph - N/A   Clear
7:53 AM 79.0 °F - 62.1 °F 56% 29.91 in 10.0 mi ESE 3.5 mph - N/A   Clear
8:53 AM 81.0 °F 82.2 °F 63.0 °F 54% 29.93 in 10.0 mi Calm Calm - N/A   Clear
9:53 AM 84.9 °F 85.9 °F 63.0 °F 48% 29.95 in 10.0 mi WNW 4.6 mph - N/A   Clear
10:53 AM 88.0 °F 89.3 °F 64.0 °F 45% 29.95 in 10.0 mi NNE 4.6 mph - N/A   Clear
11:53 AM 90.0 °F 90.3 °F 62.1 °F 39% 29.95 in 10.0 mi North 9.2 mph - N/A   Clear
12:53 PM 93.9 °F 93.2 °F 59.0 °F 31% 29.93 in 10.0 mi North 9.2 mph 17.3 mph N/A   Clear
1:53 PM 96.1 °F 96.0 °F 60.1 °F 30% 29.91 in 10.0 mi ENE 10.4 mph 21.9 mph N/A   Partly Cloudy
2:53 PM 97.0 °F 97.4 °F 61.0 °F 30% 29.90 in 10.0 mi ENE 9.2 mph - N/A   Scattered Clouds
3:53 PM 97.0 °F 97.4 °F 61.0 °F 30% 29.88 in 10.0 mi ENE 5.8 mph 21.9 mph N/A   Scattered Clouds
4:53 PM 97.0 °F 97.4 °F 61.0 °F 30% 29.86 in 10.0 mi NNE 16.1 mph 23.0 mph N/A   Clear
5:53 PM 96.1 °F 96.9 °F 62.1 °F 32% 29.86 in 10.0 mi NE 15.0 mph 25.3 mph N/A   Scattered Clouds
6:53 PM 93.9 °F 93.6 °F 60.1 °F 32% 29.87 in 10.0 mi NE 19.6 mph 36.8 mph N/A   Clear
7:53 PM 91.0 °F 90.0 °F 57.9 °F 33% 29.90 in 10.0 mi ENE 13.8 mph - N/A   Clear
8:53 PM 88.0 °F 86.7 °F 57.0 °F 35% 29.92 in 10.0 mi ENE 17.3 mph - N/A   Clear
9:53 PM 84.9 °F 84.2 °F 57.9 °F 40% 29.96 in 10.0 mi NE 15.0 mph - N/A   Clear
10:53 PM 82.9 °F 83.3 °F 61.0 °F 47% 29.98 in 10.0 mi ENE 15.0 mph - N/A   Clear
11:53 PM 81.0 °F 82.2 °F 63.0 °F 54% 30.00 in 10.0 mi East 13.8 mph - N/A   Clear